Time,TemperatureF,DewpointF,PressureIn,WindDirection,WindDirectionDegrees,WindSpeedMPH,WindSpeedGustMPH,Humidity,HourlyPrecipIn,Conditions,Clouds,dailyrainin,SoftwareType,DateUTC
2017-10-22 00:01:00,61.2,53.9,30.32,North,360,0.0,0.0,77,0.00,,---,0.00,VWS V14.01,2017-10-22 04:01:00,
2017-10-22 00:06:00,61.0,53.8,30.31,North,360,0.0,0.0,77,0.00,,---,0.00,VWS V14.01,2017-10-22 04:06:00,
2017-10-22 00:11:00,61.0,53.8,30.31,North,360,0.0,0.0,77,0.00,,---,0.00,VWS V14.01,2017-10-22 04:11:00,
2017-10-22 00:16:00,61.1,53.8,30.31,North,360,0.0,0.0,77,0.00,,---,0.00,VWS V14.01,2017-10-22 04:16:00,
2017-10-22 00:21:00,61.2,53.9,30.31,North,360,0.0,0.0,77,0.00,,---,0.00,VWS V14.01,2017-10-22 04:21:00,
2017-10-22 00:26:00,61.4,54.1,30.31,North,360,0.0,0.0,77,0.00,,---,0.00,VWS V14.01,2017-10-22 04:26:00,
2017-10-22 00:31:00,61.5,53.9,30.31,North,360,0.0,0.0,76,0.00,,---,0.00,VWS V14.01,2017-10-22 04:31:00,
2017-10-22 00:36:00,61.5,53.9,30.31,North,360,0.0,0.0,76,0.00,,---,0.00,VWS V14.01,2017-10-22 04:36:00,
2017-10-22 00:41:00,61.4,53.8,30.31,North,360,0.0,0.0,76,0.00,,---,0.00,VWS V14.01,2017-10-22 04:41:00,
2017-10-22 00:46:00,61.4,53.8,30.31,North,360,0.0,0.0,76,0.00,,---,0.00,VWS V14.01,2017-10-22 04:46:00,
2017-10-22 00:51:00,61.3,53.7,30.31,North,360,0.0,0.0,76,0.00,,---,0.00,VWS V14.01,2017-10-22 04:51:00,
2017-10-22 00:56:00,61.2,53.9,30.31,North,360,0.0,0.0,77,0.00,,---,0.00,VWS V14.01,2017-10-22 04:56:00,
2017-10-22 01:01:00,61.0,53.8,30.31,North,360,0.0,0.0,77,0.00,,---,0.00,VWS V14.01,2017-10-22 05:01:00,
2017-10-22 01:06:00,60.7,53.8,30.31,North,360,0.0,0.0,78,0.00,,---,0.00,VWS V14.01,2017-10-22 05:06:00,
2017-10-22 01:11:00,60.3,53.4,30.31,North,360,0.0,0.0,78,0.00,,---,0.00,VWS V14.01,2017-10-22 05:11:00,
2017-10-22 01:16:00,60.1,53.6,30.31,North,360,0.0,0.0,79,0.00,,---,0.00,VWS V14.01,2017-10-22 05:16:00,
2017-10-22 01:21:00,59.9,53.4,30.31,North,360,0.0,0.0,79,0.00,,---,0.00,VWS V14.01,2017-10-22 05:21:00,
2017-10-22 01:26:00,59.8,53.3,30.31,North,360,0.0,0.0,79,0.00,,---,0.00,VWS V14.01,2017-10-22 05:26:00,
2017-10-22 01:31:00,59.8,53.3,30.31,North,360,0.0,0.0,79,0.00,,---,0.00,VWS V14.01,2017-10-22 05:31:00,
2017-10-22 01:41:00,59.8,53.3,30.31,North,360,0.0,0.0,79,0.00,,---,0.00,VWS V14.01,2017-10-22 05:41:00,
2017-10-22 01:46:00,59.7,53.2,30.31,North,360,0.0,0.0,79,0.00,,---,0.00,VWS V14.01,2017-10-22 05:46:00,
2017-10-22 01:51:00,59.6,53.1,30.31,North,360,0.0,0.0,79,0.00,,---,0.00,VWS V14.01,2017-10-22 05:51:00,
2017-10-22 01:56:00,59.6,53.1,30.31,North,360,0.0,0.0,79,0.00,,---,0.00,VWS V14.01,2017-10-22 05:56:00,
2017-10-22 02:01:00,59.7,53.2,30.31,North,360,0.0,0.0,79,0.00,,---,0.00,VWS V14.01,2017-10-22 06:01:00,
2017-10-22 02:06:00,59.7,53.2,30.31,North,360,0.0,0.0,79,0.00,,---,0.00,VWS V14.01,2017-10-22 06:06:00,
2017-10-22 02:11:00,59.7,53.2,30.31,North,360,0.0,0.0,79,0.00,,---,0.00,VWS V14.01,2017-10-22 06:11:00,
2017-10-22 02:16:00,59.6,53.1,30.31,North,360,0.0,0.0,79,0.00,,---,0.00,VWS V14.01,2017-10-22 06:16:00,
2017-10-22 02:21:00,59.6,53.1,30.31,North,360,0.0,0.0,79,0.00,,---,0.00,VWS V14.01,2017-10-22 06:21:00,
2017-10-22 02:26:00,59.4,53.2,30.31,North,360,0.0,0.0,80,0.00,,---,0.00,VWS V14.01,2017-10-22 06:26:00,
2017-10-22 02:31:00,59.4,53.2,30.31,North,360,0.0,0.0,80,0.00,,---,0.00,VWS V14.01,2017-10-22 06:31:00,
2017-10-22 02:36:00,59.4,52.9,30.31,North,360,0.0,0.0,79,0.00,,---,0.00,VWS V14.01,2017-10-22 06:36:00,
2017-10-22 02:41:00,59.5,53.0,30.31,North,360,0.0,0.0,79,0.00,,---,0.00,VWS V14.01,2017-10-22 06:41:00,
2017-10-22 02:46:00,59.5,53.0,30.31,North,360,0.0,0.0,79,0.00,,---,0.00,VWS V14.01,2017-10-22 06:46:00,
2017-10-22 02:51:00,59.6,53.1,30.31,North,360,0.0,0.0,79,0.00,,---,0.00,VWS V14.01,2017-10-22 06:51:00,
2017-10-22 02:56:00,59.4,52.9,30.31,North,360,0.0,0.0,79,0.00,,---,0.00,VWS V14.01,2017-10-22 06:56:00,
2017-10-22 03:01:00,58.9,52.8,30.31,North,360,0.0,0.0,80,0.00,,---,0.00,VWS V14.01,2017-10-22 07:01:00,
2017-10-22 03:06:00,58.6,52.5,30.31,North,360,0.0,0.0,80,0.00,,---,0.00,VWS V14.01,2017-10-22 07:06:00,
2017-10-22 03:11:00,58.5,52.7,30.31,North,360,0.0,0.0,81,0.00,,---,0.00,VWS V14.01,2017-10-22 07:11:00,
2017-10-22 03:16:00,58.4,52.6,30.31,North,360,0.0,0.0,81,0.00,,---,0.00,VWS V14.01,2017-10-22 07:16:00,
2017-10-22 03:21:00,58.2,52.4,30.31,North,360,0.0,0.0,81,0.00,,---,0.00,VWS V14.01,2017-10-22 07:21:00,
2017-10-22 03:26:00,58.0,52.5,30.31,North,360,0.0,0.0,82,0.00,,---,0.00,VWS V14.01,2017-10-22 07:26:00,
2017-10-22 03:31:00,57.8,52.3,30.31,North,360,0.0,0.0,82,0.00,,---,0.00,VWS V14.01,2017-10-22 07:31:00,
2017-10-22 03:36:00,57.7,52.2,30.31,North,360,0.0,0.0,82,0.00,,---,0.00,VWS V14.01,2017-10-22 07:36:00,
2017-10-22 03:41:00,57.8,52.3,30.30,North,360,0.0,0.0,82,0.00,,---,0.00,VWS V14.01,2017-10-22 07:41:00,
2017-10-22 03:46:00,57.9,52.5,30.31,North,360,0.0,0.0,82,0.00,,---,0.00,VWS V14.01,2017-10-22 07:46:00,
2017-10-22 03:51:00,57.9,52.5,30.30,North,360,0.0,0.0,82,0.00,,---,0.00,VWS V14.01,2017-10-22 07:51:00,
2017-10-22 03:56:00,57.8,52.3,30.30,North,360,0.0,0.0,82,0.00,,---,0.00,VWS V14.01,2017-10-22 07:56:00,
2017-10-22 04:01:00,57.7,52.2,30.31,North,360,0.0,0.0,82,0.00,,---,0.00,VWS V14.01,2017-10-22 08:01:00,
2017-10-22 04:06:00,57.6,52.2,30.30,North,360,0.0,0.0,82,0.00,,---,0.00,VWS V14.01,2017-10-22 08:06:00,
2017-10-22 04:11:00,57.6,52.2,30.30,North,360,0.0,0.0,82,0.00,,---,0.00,VWS V14.01,2017-10-22 08:11:00,
2017-10-22 04:16:00,57.4,52.0,30.30,North,360,0.0,0.0,82,0.00,,---,0.00,VWS V14.01,2017-10-22 08:16:00,
2017-10-22 04:21:00,57.3,52.2,30.30,North,360,0.0,0.0,83,0.00,,---,0.00,VWS V14.01,2017-10-22 08:21:00,
2017-10-22 04:26:00,57.3,52.2,30.30,North,360,0.0,0.0,83,0.00,,---,0.00,VWS V14.01,2017-10-22 08:26:00,
2017-10-22 04:31:00,57.2,52.1,30.30,North,360,0.0,0.0,83,0.00,,---,0.00,VWS V14.01,2017-10-22 08:31:00,
2017-10-22 04:36:00,57.2,52.1,30.30,North,360,0.0,0.0,83,0.00,,---,0.00,VWS V14.01,2017-10-22 08:36:00,
2017-10-22 04:41:00,57.2,52.1,30.30,North,360,0.0,0.0,83,0.00,,---,0.00,VWS V14.01,2017-10-22 08:41:00,
2017-10-22 04:46:00,57.2,52.1,30.30,North,360,0.0,0.0,83,0.00,,---,0.00,VWS V14.01,2017-10-22 08:46:00,
2017-10-22 04:51:00,57.2,52.1,30.30,North,360,0.0,0.0,83,0.00,,---,0.00,VWS V14.01,2017-10-22 08:51:00,
2017-10-22 04:56:00,57.0,51.9,30.31,North,360,0.0,0.0,83,0.00,,---,0.00,VWS V14.01,2017-10-22 08:56:00,
2017-10-22 05:01:00,56.9,52.1,30.31,North,360,0.0,0.0,84,0.00,,---,0.00,VWS V14.01,2017-10-22 09:01:00,
2017-10-22 05:06:00,56.7,51.9,30.31,North,360,0.0,0.0,84,0.00,,---,0.00,VWS V14.01,2017-10-22 09:06:00,
2017-10-22 05:11:00,56.6,51.8,30.31,North,360,0.0,0.0,84,0.00,,---,0.00,VWS V14.01,2017-10-22 09:11:00,
2017-10-22 05:16:00,56.6,51.8,30.31,North,360,0.0,0.0,84,0.00,,---,0.00,VWS V14.01,2017-10-22 09:16:00,
2017-10-22 05:21:00,56.7,52.2,30.31,North,360,0.0,0.0,85,0.00,,---,0.00,VWS V14.01,2017-10-22 09:21:00,
2017-10-22 05:26:00,56.8,52.0,30.31,North,360,0.0,0.0,84,0.00,,---,0.00,VWS V14.01,2017-10-22 09:26:00,
2017-10-22 05:31:00,56.7,52.2,30.32,North,360,0.0,0.0,85,0.00,,---,0.00,VWS V14.01,2017-10-22 09:31:00,
2017-10-22 05:36:00,56.6,52.2,30.31,North,360,0.0,0.0,85,0.00,,---,0.00,VWS V14.01,2017-10-22 09:36:00,
2017-10-22 05:41:00,56.3,51.9,30.32,North,360,0.0,0.0,85,0.00,,---,0.00,VWS V14.01,2017-10-22 09:41:00,
2017-10-22 05:46:00,56.1,51.7,30.32,North,360,0.0,0.0,85,0.00,,---,0.00,VWS V14.01,2017-10-22 09:46:00,
2017-10-22 05:51:00,55.9,51.8,30.32,North,360,0.0,0.0,86,0.00,,---,0.00,VWS V14.01,2017-10-22 09:51:00,
2017-10-22 05:56:00,55.8,51.7,30.32,North,360,0.0,0.0,86,0.00,,---,0.00,VWS V14.01,2017-10-22 09:56:00,
2017-10-22 06:01:00,55.5,51.1,30.32,North,360,0.0,0.0,85,0.00,,---,0.00,VWS V14.01,2017-10-22 10:01:00,
2017-10-22 06:06:00,55.4,51.3,30.32,North,360,0.0,0.0,86,0.00,,---,0.00,VWS V14.01,2017-10-22 10:06:00,
2017-10-22 06:11:00,55.2,51.1,30.32,North,360,0.0,0.0,86,0.00,,---,0.00,VWS V14.01,2017-10-22 10:11:00,
2017-10-22 06:16:00,55.1,51.3,30.32,North,360,0.0,0.0,87,0.00,,---,0.00,VWS V14.01,2017-10-22 10:16:00,
2017-10-22 06:21:00,55.1,51.3,30.31,North,360,0.0,0.0,87,0.00,,---,0.00,VWS V14.01,2017-10-22 10:21:00,
2017-10-22 06:26:00,55.3,51.5,30.32,North,360,0.0,0.0,87,0.00,,---,0.00,VWS V14.01,2017-10-22 10:26:00,
2017-10-22 06:31:00,55.2,51.4,30.32,North,360,0.0,0.0,87,0.00,,---,0.00,VWS V14.01,2017-10-22 10:31:00,
2017-10-22 06:36:00,55.2,51.4,30.32,North,360,0.0,0.0,87,0.00,,---,0.00,VWS V14.01,2017-10-22 10:36:00,
2017-10-22 06:41:00,55.2,51.4,30.32,North,360,0.0,0.0,87,0.00,,---,0.00,VWS V14.01,2017-10-22 10:41:00,
2017-10-22 06:46:00,55.2,51.4,30.32,North,360,0.0,0.0,87,0.00,,---,0.00,VWS V14.01,2017-10-22 10:46:00,
2017-10-22 06:51:00,55.2,51.4,30.32,North,360,0.0,0.0,87,0.00,,---,0.00,VWS V14.01,2017-10-22 10:51:00,
2017-10-22 06:56:00,55.2,51.4,30.32,North,360,0.0,0.0,87,0.00,,---,0.00,VWS V14.01,2017-10-22 10:56:00,
2017-10-22 07:01:00,55.2,51.4,30.32,North,360,0.0,0.0,87,0.00,,---,0.00,VWS V14.01,2017-10-22 11:01:00,
2017-10-22 07:06:00,55.2,51.4,30.32,North,360,0.0,0.0,87,0.00,,---,0.00,VWS V14.01,2017-10-22 11:06:00,
2017-10-22 07:11:00,55.2,51.4,30.32,North,360,0.0,0.0,87,0.00,,---,0.00,VWS V14.01,2017-10-22 11:11:00,
2017-10-22 07:16:00,55.2,51.4,30.33,North,360,0.0,0.0,87,0.00,,---,0.00,VWS V14.01,2017-10-22 11:16:00,
2017-10-22 07:21:00,55.2,51.4,30.32,North,360,0.0,0.0,87,0.00,,---,0.00,VWS V14.01,2017-10-22 11:21:00,
2017-10-22 07:26:00,55.2,51.4,30.33,North,360,0.0,0.0,87,0.00,,---,0.00,VWS V14.01,2017-10-22 11:26:00,
2017-10-22 07:31:00,55.2,51.4,30.32,North,360,0.0,0.0,87,0.00,,---,0.00,VWS V14.01,2017-10-22 11:31:00,
2017-10-22 07:36:00,55.2,51.4,30.33,North,360,0.0,0.0,87,0.00,,---,0.00,VWS V14.01,2017-10-22 11:36:00,
2017-10-22 07:41:00,55.2,51.4,30.33,North,360,0.0,0.0,87,0.00,,---,0.00,VWS V14.01,2017-10-22 11:41:00,
2017-10-22 07:46:00,55.2,51.4,30.33,North,360,0.0,0.0,87,0.00,,---,0.00,VWS V14.01,2017-10-22 11:46:00,
2017-10-22 07:51:00,55.2,51.4,30.33,North,360,0.0,0.0,87,0.00,,---,0.00,VWS V14.01,2017-10-22 11:51:00,
2017-10-22 07:56:00,55.2,51.4,30.33,North,360,0.0,0.0,87,0.00,,---,0.00,VWS V14.01,2017-10-22 11:56:00,
2017-10-22 08:01:00,55.2,51.4,30.34,North,360,0.0,0.0,87,0.00,,---,0.00,VWS V14.01,2017-10-22 12:01:00,
2017-10-22 08:06:00,55.2,51.4,30.34,North,360,0.0,0.0,87,0.00,,---,0.00,VWS V14.01,2017-10-22 12:06:00,
2017-10-22 08:11:00,55.2,51.4,30.34,North,360,0.0,0.0,87,0.00,,---,0.00,VWS V14.01,2017-10-22 12:11:00,
2017-10-22 08:16:00,55.2,51.4,30.34,North,360,0.0,0.0,87,0.00,,---,0.00,VWS V14.01,2017-10-22 12:16:00,
2017-10-22 08:21:00,55.2,51.4,30.34,North,360,0.0,0.0,87,0.00,,---,0.00,VWS V14.01,2017-10-22 12:21:00,
2017-10-22 08:26:00,55.2,51.4,30.35,North,360,0.0,0.0,87,0.00,,---,0.00,VWS V14.01,2017-10-22 12:26:00,
2017-10-22 08:31:00,55.2,51.4,30.35,North,360,0.0,0.0,87,0.00,,---,0.00,VWS V14.01,2017-10-22 12:31:00,
2017-10-22 08:36:00,55.2,51.4,30.35,North,360,0.0,0.0,87,0.00,,---,0.00,VWS V14.01,2017-10-22 12:36:00,
2017-10-22 08:41:00,55.2,51.4,30.34,North,360,0.0,0.0,87,0.00,,---,0.00,VWS V14.01,2017-10-22 12:41:00,
2017-10-22 08:46:00,55.2,51.4,30.34,North,360,0.0,0.0,87,0.00,,---,0.00,VWS V14.01,2017-10-22 12:46:00,
2017-10-22 08:51:00,55.2,51.4,30.35,North,360,0.0,0.0,87,0.00,,---,0.00,VWS V14.01,2017-10-22 12:51:00,
2017-10-22 08:56:00,55.2,51.4,30.34,North,360,0.0,0.0,87,0.00,,---,0.00,VWS V14.01,2017-10-22 12:56:00,
2017-10-22 09:01:00,55.2,51.4,30.34,North,360,0.0,0.0,87,0.00,,---,0.00,VWS V14.01,2017-10-22 13:01:00,
2017-10-22 09:06:00,55.2,51.4,30.35,North,360,0.0,0.0,87,0.00,,---,0.00,VWS V14.01,2017-10-22 13:06:00,
2017-10-22 09:11:00,55.2,51.4,30.35,North,360,0.0,0.0,87,0.00,,---,0.00,VWS V14.01,2017-10-22 13:11:00,
2017-10-22 09:16:00,55.2,51.4,30.35,North,360,0.0,0.0,87,0.00,,---,0.00,VWS V14.01,2017-10-22 13:16:00,
2017-10-22 09:21:00,55.2,51.4,30.36,North,360,0.0,0.0,87,0.00,,---,0.00,VWS V14.01,2017-10-22 13:21:00,
2017-10-22 09:22:00,55.2,51.4,30.36,North,360,0.0,0.0,87,0.00,,---,0.00,VWS V14.01,2017-10-22 13:22:00,
2017-10-22 09:27:00,55.2,51.4,30.36,North,360,0.0,0.0,87,0.00,,---,0.00,VWS V14.01,2017-10-22 13:27:00,
2017-10-22 09:32:00,55.2,51.4,30.36,North,360,0.0,0.0,87,0.00,,---,0.00,VWS V14.01,2017-10-22 13:32:00,
2017-10-22 09:37:00,55.2,51.4,30.36,North,360,0.0,0.0,87,0.00,,---,0.00,VWS V14.01,2017-10-22 13:37:00,
2017-10-22 09:42:00,55.2,51.4,30.36,North,360,0.0,0.0,87,0.00,,---,0.00,VWS V14.01,2017-10-22 13:42:00,
2017-10-22 09:47:00,55.2,51.4,30.36,North,360,0.0,0.0,87,0.00,,---,0.00,VWS V14.01,2017-10-22 13:47:00,
2017-10-22 09:52:00,55.2,51.4,30.36,North,360,0.0,0.0,87,0.00,,---,0.00,VWS V14.01,2017-10-22 13:52:00,
2017-10-22 09:57:00,55.2,51.4,30.36,North,360,0.0,0.0,87,0.00,,---,0.00,VWS V14.01,2017-10-22 13:57:00,
2017-10-22 10:02:00,55.2,51.4,30.36,North,360,0.0,0.0,87,0.00,,---,0.00,VWS V14.01,2017-10-22 14:02:00,
2017-10-22 10:07:00,55.2,51.4,30.36,North,360,0.0,0.0,87,0.00,,---,0.00,VWS V14.01,2017-10-22 14:07:00,
2017-10-22 10:12:00,55.2,51.4,30.36,North,360,0.0,0.0,87,0.00,,---,0.00,VWS V14.01,2017-10-22 14:12:00,
2017-10-22 10:17:00,55.2,51.4,30.36,North,360,0.0,0.0,87,0.00,,---,0.00,VWS V14.01,2017-10-22 14:17:00,
2017-10-22 10:22:00,55.2,51.4,30.36,North,360,0.0,0.0,87,0.00,,---,0.00,VWS V14.01,2017-10-22 14:22:00,
2017-10-22 10:27:00,55.2,51.4,30.36,North,360,0.0,0.0,87,0.00,,---,0.00,VWS V14.01,2017-10-22 14:27:00,
2017-10-22 10:32:00,55.2,51.4,30.36,North,360,0.0,0.0,87,0.00,,---,0.00,VWS V14.01,2017-10-22 14:32:00,
2017-10-22 10:37:00,55.2,51.4,30.36,North,360,0.0,0.0,87,0.00,,---,0.00,VWS V14.01,2017-10-22 14:37:00,
2017-10-22 10:42:00,55.2,51.4,30.36,North,360,0.0,0.0,87,0.00,,---,0.00,VWS V14.01,2017-10-22 14:42:00,
2017-10-22 10:47:00,55.2,51.4,30.36,North,360,0.0,0.0,87,0.00,,---,0.00,VWS V14.01,2017-10-22 14:47:00,
2017-10-22 10:52:00,55.2,51.4,30.35,North,360,0.0,0.0,87,0.00,,---,0.00,VWS V14.01,2017-10-22 14:52:00,
2017-10-22 10:57:00,55.2,51.4,30.35,North,360,0.0,0.0,87,0.00,,---,0.00,VWS V14.01,2017-10-22 14:57:00,
2017-10-22 11:02:00,55.2,51.4,30.35,North,360,0.0,0.0,87,0.00,,---,0.00,VWS V14.01,2017-10-22 15:02:00,
2017-10-22 11:07:00,55.2,51.4,30.35,North,360,0.0,0.0,87,0.00,,---,0.00,VWS V14.01,2017-10-22 15:07:00,
2017-10-22 11:12:00,55.2,51.4,30.35,North,360,0.0,0.0,87,0.00,,---,0.00,VWS V14.01,2017-10-22 15:12:00,
2017-10-22 11:17:00,55.2,51.4,30.35,North,360,0.0,0.0,87,0.00,,---,0.00,VWS V14.01,2017-10-22 15:17:00,
2017-10-22 11:22:00,55.2,51.4,30.35,North,360,0.0,0.0,87,0.00,,---,0.00,VWS V14.01,2017-10-22 15:22:00,
2017-10-22 11:27:00,55.2,51.4,30.34,North,360,0.0,0.0,87,0.00,,---,0.00,VWS V14.01,2017-10-22 15:27:00,
2017-10-22 11:32:00,55.2,51.4,30.35,North,360,0.0,0.0,87,0.00,,---,0.00,VWS V14.01,2017-10-22 15:32:00,
2017-10-22 11:37:00,55.2,51.4,30.35,North,360,0.0,0.0,87,0.00,,---,0.00,VWS V14.01,2017-10-22 15:37:00,
2017-10-22 11:42:00,55.2,51.4,30.35,North,360,0.0,0.0,87,0.00,,---,0.00,VWS V14.01,2017-10-22 15:42:00,
2017-10-22 11:47:00,55.2,51.4,30.35,North,360,0.0,0.0,87,0.00,,---,0.00,VWS V14.01,2017-10-22 15:47:00,
2017-10-22 11:52:00,55.2,51.4,30.35,North,360,0.0,0.0,87,0.00,,---,0.00,VWS V14.01,2017-10-22 15:52:00,
2017-10-22 11:57:00,55.2,51.4,30.34,North,360,0.0,0.0,87,0.00,,---,0.00,VWS V14.01,2017-10-22 15:57:00,
2017-10-22 12:02:00,55.2,51.4,30.34,North,360,0.0,0.0,87,0.00,,---,0.00,VWS V14.01,2017-10-22 16:02:00,
2017-10-22 12:07:00,55.2,51.4,30.34,North,360,0.0,0.0,87,0.00,,---,0.00,VWS V14.01,2017-10-22 16:07:00,
2017-10-22 12:12:00,55.2,51.4,30.34,North,360,0.0,0.0,87,0.00,,---,0.00,VWS V14.01,2017-10-22 16:12:00,
2017-10-22 12:17:00,55.2,51.4,30.34,North,360,0.0,0.0,87,0.00,,---,0.00,VWS V14.01,2017-10-22 16:17:00,
2017-10-22 12:22:00,55.2,51.4,30.33,North,360,0.0,0.0,87,0.00,,---,0.00,VWS V14.01,2017-10-22 16:22:00,
2017-10-22 12:27:00,55.2,51.4,30.33,North,360,0.0,0.0,87,0.00,,---,0.00,VWS V14.01,2017-10-22 16:27:00,
2017-10-22 12:32:00,55.2,51.4,30.33,North,360,0.0,0.0,87,0.00,,---,0.00,VWS V14.01,2017-10-22 16:32:00,
2017-10-22 12:37:00,55.2,51.4,30.33,North,360,0.0,0.0,87,0.00,,---,0.00,VWS V14.01,2017-10-22 16:37:00,
2017-10-22 12:42:00,55.2,51.4,30.32,North,360,0.0,0.0,87,0.00,,---,0.00,VWS V14.01,2017-10-22 16:42:00,
2017-10-22 12:47:00,55.2,51.4,30.32,North,360,0.0,0.0,87,0.00,,---,0.00,VWS V14.01,2017-10-22 16:47:00,
2017-10-22 12:52:00,55.2,51.4,30.32,North,360,0.0,0.0,87,0.00,,---,0.00,VWS V14.01,2017-10-22 16:52:00,
2017-10-22 12:57:00,55.2,51.4,30.32,North,360,0.0,0.0,87,0.00,,---,0.00,VWS V14.01,2017-10-22 16:57:00,
2017-10-22 12:59:00,55.2,51.4,30.32,North,360,0.0,0.0,87,0.00,,---,0.00,VWS V14.01,2017-10-22 16:59:00,
2017-10-22 13:04:00,55.2,51.4,30.31,North,360,0.0,0.0,87,0.00,,---,0.00,VWS V14.01,2017-10-22 17:04:00,
2017-10-22 13:09:00,55.2,51.4,30.31,North,360,0.0,0.0,87,0.00,,---,0.00,VWS V14.01,2017-10-22 17:09:00,
2017-10-22 13:14:00,55.2,51.4,30.31,North,360,0.0,0.0,87,0.00,,---,0.00,VWS V14.01,2017-10-22 17:14:00,
2017-10-22 13:19:00,55.2,51.4,30.30,North,360,0.0,0.0,87,0.00,,---,0.00,VWS V14.01,2017-10-22 17:19:00,
2017-10-22 13:24:00,55.2,51.4,30.30,North,360,0.0,0.0,87,0.00,,---,0.00,VWS V14.01,2017-10-22 17:24:00,
2017-10-22 13:29:00,55.2,51.4,30.30,North,360,0.0,0.0,87,0.00,,---,0.00,VWS V14.01,2017-10-22 17:29:00,
2017-10-22 13:34:00,55.2,51.4,30.30,North,360,0.0,0.0,87,0.00,,---,0.00,VWS V14.01,2017-10-22 17:34:00,
2017-10-22 13:39:00,55.2,51.4,30.30,North,360,0.0,0.0,87,0.00,,---,0.00,VWS V14.01,2017-10-22 17:39:00,
2017-10-22 13:44:00,55.2,51.4,30.30,North,360,0.0,0.0,87,0.00,,---,0.00,VWS V14.01,2017-10-22 17:44:00,
2017-10-22 13:49:00,55.2,51.4,30.29,North,360,0.0,0.0,87,0.00,,---,0.00,VWS V14.01,2017-10-22 17:49:00,
2017-10-22 13:54:00,55.2,51.4,30.29,North,360,0.0,0.0,87,0.00,,---,0.00,VWS V14.01,2017-10-22 17:54:00,
2017-10-22 13:59:00,55.2,51.4,30.29,North,360,0.0,0.0,87,0.00,,---,0.00,VWS V14.01,2017-10-22 17:59:00,
2017-10-22 14:04:00,55.2,51.4,30.29,North,360,0.0,0.0,87,0.00,,---,0.00,VWS V14.01,2017-10-22 18:04:00,
2017-10-22 14:09:00,55.2,51.4,30.28,North,360,0.0,0.0,87,0.00,,---,0.00,VWS V14.01,2017-10-22 18:09:00,
2017-10-22 14:14:00,55.2,51.4,30.27,North,360,0.0,0.0,87,0.00,,---,0.00,VWS V14.01,2017-10-22 18:14:00,
2017-10-22 14:19:00,55.2,51.4,30.27,North,360,0.0,0.0,87,0.00,,---,0.00,VWS V14.01,2017-10-22 18:19:00,
2017-10-22 14:24:00,55.2,51.4,30.28,North,360,0.0,0.0,87,0.00,,---,0.00,VWS V14.01,2017-10-22 18:24:00,
2017-10-22 14:29:00,55.2,51.4,30.27,North,360,0.0,0.0,87,0.00,,---,0.00,VWS V14.01,2017-10-22 18:29:00,
2017-10-22 14:34:00,55.2,51.4,30.27,North,360,0.0,0.0,87,0.00,,---,0.00,VWS V14.01,2017-10-22 18:34:00,
2017-10-22 14:39:00,55.2,51.4,30.27,North,360,0.0,0.0,87,0.00,,---,0.00,VWS V14.01,2017-10-22 18:39:00,
2017-10-22 14:44:00,55.2,51.4,30.26,North,360,0.0,0.0,87,0.00,,---,0.00,VWS V14.01,2017-10-22 18:44:00,
2017-10-22 14:49:00,55.2,51.4,30.26,North,360,0.0,0.0,87,0.00,,---,0.00,VWS V14.01,2017-10-22 18:49:00,
2017-10-22 14:54:00,55.2,51.4,30.26,North,360,0.0,0.0,87,0.00,,---,0.00,VWS V14.01,2017-10-22 18:54:00,
2017-10-22 14:59:00,55.2,51.4,30.26,North,360,0.0,0.0,87,0.00,,---,0.00,VWS V14.01,2017-10-22 18:59:00,
2017-10-22 15:04:00,55.2,51.4,30.25,North,360,0.0,0.0,87,0.00,,---,0.00,VWS V14.01,2017-10-22 19:04:00,
2017-10-22 15:09:00,55.2,51.4,30.25,North,360,0.0,0.0,87,0.00,,---,0.00,VWS V14.01,2017-10-22 19:09:00,
2017-10-22 15:14:00,55.2,51.4,30.25,North,360,0.0,0.0,87,0.00,,---,0.00,VWS V14.01,2017-10-22 19:14:00,
2017-10-22 15:19:00,55.2,51.4,30.25,North,360,0.0,0.0,87,0.00,,---,0.00,VWS V14.01,2017-10-22 19:19:00,
2017-10-22 15:24:00,55.2,51.4,30.25,North,360,0.0,0.0,87,0.00,,---,0.00,VWS V14.01,2017-10-22 19:24:00,
2017-10-22 15:29:00,55.2,51.4,30.25,North,360,0.0,0.0,87,0.00,,---,0.00,VWS V14.01,2017-10-22 19:29:00,
2017-10-22 15:34:00,55.2,51.4,30.25,North,360,0.0,0.0,87,0.00,,---,0.00,VWS V14.01,2017-10-22 19:34:00,
2017-10-22 15:39:00,55.2,51.4,30.25,North,360,0.0,0.0,87,0.00,,---,0.00,VWS V14.01,2017-10-22 19:39:00,
2017-10-22 15:44:00,55.2,51.4,30.25,North,360,0.0,0.0,87,0.00,,---,0.00,VWS V14.01,2017-10-22 19:44:00,
2017-10-22 15:49:00,55.2,51.4,30.25,North,360,0.0,0.0,87,0.00,,---,0.00,VWS V14.01,2017-10-22 19:49:00,
2017-10-22 15:54:00,55.2,51.4,30.25,North,360,0.0,0.0,87,0.00,,---,0.00,VWS V14.01,2017-10-22 19:54:00,
2017-10-22 15:59:00,55.2,51.4,30.25,North,360,0.0,0.0,87,0.00,,---,0.00,VWS V14.01,2017-10-22 19:59:00,
2017-10-22 16:04:00,55.2,51.4,30.25,North,360,0.0,0.0,87,0.00,,---,0.00,VWS V14.01,2017-10-22 20:04:00,
2017-10-22 16:09:00,55.2,51.4,30.24,North,360,0.0,0.0,87,0.00,,---,0.00,VWS V14.01,2017-10-22 20:09:00,